Weather reports worldwide

Advertisment
Düsseldorf, Germany (10400): temperature & dewpoint: 01.08.2020 02:00:00 - 07.08.2020 02:00:00 (CEST)Düsseldorf, Germany (10400): temperature 5cm & temperature -5cm: 01.08.2020 02:00:00 - 07.08.2020 02:00:00 (CEST)Düsseldorf, Germany (10400): temperature -20cm & temperature -100cm: 01.08.2020 02:00:00 - 07.08.2020 02:00:00 (CEST)Düsseldorf, Germany (10400): wind speed & gusts: 01.08.2020 02:00:00 - 07.08.2020 02:00:00 (CEST)Düsseldorf, Germany (10400): wind direction: 01.08.2020 02:00:00 - 07.08.2020 02:00:00 (CEST)Düsseldorf, Germany (10400): reduced air pressure: 01.08.2020 02:00:00 - 07.08.2020 02:00:00 (CEST)Düsseldorf, Germany (10400): visibility: 01.08.2020 02:00:00 - 07.08.2020 02:00:00 (CEST)Düsseldorf, Germany (10400): sunshine duration: 01.08.2020 02:00:00 - 07.08.2020 02:00:00 (CEST)Düsseldorf, Germany (10400): precipitation: 01.08.2020 02:00:00 - 07.08.2020 02:00:00 (CEST)
Date & Time tt [°C] td [°C] tt 5cm [°C] tt -5cm [°C] tt -20cm [°C] tt -100cm [°C] ff [km/h] ff [kn] fx [km/h] fx [kn] dd ppp [hPa] vv [km] sd [min] rr [mm]
07.08.2020 02:00:00 18,5 12,6 15,3 24,6 27,4 21,6 4 2 5 3 E 1019,7 10 0 0,0
07.08.2020 01:00:00 19,1 13,0 16,9 25,5 28,0 21,6 4 2 5 3 NNE 1019,6 55 0 0,0
07.08.2020 00:00:00 20,8 13,2 17,2 26,6 28,6 21,6 2 1 9 5 - 1019,6 10 0 0,0
06.08.2020 23:00:00 21,6 12,7 17,6 27,9 29,1 21,6 6 3 9 5 ENE 1019,4 55 0 0,0
06.08.2020 22:00:00 23,9 12,8 19,8 29,6 29,6 21,6 9 5 11 6 E 1019,1 10 0 0,0
06.08.2020 21:00:00 27,2 11,9 23,9 31,9 30,0 21,5 8 4 12 6 NE 1018,6 10 48 0,0
06.08.2020 20:00:00 31,2 10,2 33,1 34,2 30,0 21,5 7 4 18 10 ESE 1018,2 50 60 0,0
06.08.2020 19:00:00 31,5 10,1 34,3 35,9 29,8 21,5 8 4 22 12 SSE 1018,1 10 60 0,0
06.08.2020 18:00:00 31,9 10,2 36,3 36,9 29,4 21,5 10 6 22 12 S 1018,4 50 60 0,0
06.08.2020 17:00:00 31,7 9,7 37,3 37,2 28,8 21,5 8 4 28 15 - 1018,6 10 60 0,0
06.08.2020 16:00:00 31,0 9,7 36,0 37,0 28,0 21,5 9 5 24 13 - 1018,8 10 60 0,0
06.08.2020 15:00:00 30,1 9,5 38,1 35,7 27,1 21,5 8 4 34 18 - 1019,0 10 60 0,0
06.08.2020 14:00:00 30,1 9,4 35,3 34,6 26,2 21,5 11 6 28 15 SE 1019,4 10 60 0,0
06.08.2020 13:00:00 29,7 9,2 34,6 32,2 25,3 21,5 15 8 30 16 SSE 1019,7 10 60 0,0
06.08.2020 12:00:00 28,3 9,4 32,4 29,7 24,6 21,5 21 11 35 19 S 1020,0 60 60 0,0
06.08.2020 11:00:00 27,1 10,1 30,5 27,1 24,0 21,5 21 11 30 16 S 1020,0 60 60 0,0
06.08.2020 10:00:00 25,6 10,1 28,4 24,7 23,7 21,5 15 8 24 13 S 1019,9 10 60 0,0
06.08.2020 09:00:00 23,3 9,8 24,6 22,9 23,7 21,4 14 8 29 16 SSE 1019,6 60 60 0,0
06.08.2020 08:00:00 21,8 8,8 21,8 21,9 23,8 21,4 20 11 29 16 SSE 1019,2 60 60 0,0
06.08.2020 07:00:00 20,7 8,3 19,5 21,5 24,1 21,4 18 10 28 15 SSE 1018,7 60 6 0,0
06.08.2020 06:00:00 20,0 8,1 18,5 21,8 24,5 21,4 19 11 29 16 SSE 1018,3 65 0 0,0
06.08.2020 05:00:00 20,3 7,9 18,8 22,2 24,8 21,4 18 10 28 15 SSE 1017,9 10 0 0,0
06.08.2020 04:00:00 21,1 7,9 19,6 22,7 25,2 21,4 19 10 35 19 SSE 1017,6 65 0 0,0
06.08.2020 03:00:00 21,5 8,0 20,1 23,2 25,6 21,4 22 12 29 16 SSE 1017,2 65 0 0,0
06.08.2020 02:00:00 21,7 8,6 20,2 23,7 26,0 21,4 21 11 30 16 SSE 1016,9 10 0 0,0
06.08.2020 01:00:00 22,7 8,8 21,2 24,4 26,5 21,4 22 12 29 16 SSE 1016,7 10 0 0,0
06.08.2020 00:00:00 23,6 9,4 21,7 25,0 27,0 21,4 16 9 22 12 SSE 1016,5 65 0 0,0
05.08.2020 23:00:00 20,6 10,1 16,4 26,0 27,6 21,4 7 4 11 6 ENE 1016,3 65 0 0,0
05.08.2020 22:00:00 21,3 10,2 18,3 27,7 28,1 21,4 5 3 11 6 ENE 1015,8 10 0 0,0
05.08.2020 21:00:00 26,7 8,6 22,1 30,0 28,4 21,4 5 3 16 9 NNE 1015,2 60 44 0,0
05.08.2020 20:00:00 29,3 7,7 30,1 32,3 28,5 21,4 10 5 22 12 W 1015,0 50 60 0,0
05.08.2020 19:00:00 29,6 7,1 31,5 33,9 28,3 21,4 15 8 22 12 S 1014,9 10 60 0,0
05.08.2020 18:00:00 29,5 6,6 34,8 35,1 27,8 21,5 9 5 27 15 W 1015,1 10 60 0,0
05.08.2020 17:00:00 29,4 6,7 34,3 35,5 27,2 21,5 16 9 28 15 SSW 1015,3 10 60 0,0
05.08.2020 16:00:00 29,1 6,9 34,6 35,1 26,3 21,5 13 7 31 17 SSE 1015,5 10 60 0,0
05.08.2020 15:00:00 28,2 6,6 34,0 34,0 25,4 21,5 15 8 29 16 S 1015,9 50 60 0,0
05.08.2020 14:00:00 27,5 6,9 33,1 32,3 24,4 21,5 15 8 34 18 S 1016,4 50 60 0,0
05.08.2020 13:00:00 27,2 7,3 32,5 30,2 23,5 21,5 18 10 29 16 SW 1016,8 10 60 0,0
05.08.2020 12:00:00 26,3 8,1 30,8 27,5 22,7 21,5 22 12 29 16 S 1017,1 50 60 0,0
05.08.2020 11:00:00 24,5 8,9 27,8 24,6 22,0 21,5 13 7 22 12 SSW 1017,4 10 60 0,0
05.08.2020 10:00:00 21,9 8,7 24,6 21,8 21,7 21,5 13 7 24 13 S 1017,7 50 60 0,0
05.08.2020 09:00:00 19,0 8,7 20,4 19,8 21,7 21,4 15 8 29 16 SSE 1017,6 10 60 0,0
05.08.2020 08:00:00 16,1 8,1 16,4 18,7 21,9 21,4 21 11 31 17 SSE 1017,2 10 60 0,0
05.08.2020 07:00:00 14,6 7,7 13,9 18,4 22,2 21,4 22 12 31 17 SSE 1016,9 50 7 0,0
05.08.2020 06:00:00 14,3 7,7 13,3 18,7 22,6 21,4 23 13 31 17 SSE 1016,8 60 0 0,0
05.08.2020 05:00:00 14,8 7,7 13,8 19,2 23,0 21,4 21 11 28 15 SSE 1016,7 10 0 0,0
05.08.2020 04:00:00 14,8 7,7 13,4 19,6 23,4 21,4 16 9 26 14 SSE 1016,8 10 0 0,0
05.08.2020 03:00:00 15,5 7,5 14,0 20,1 23,9 21,4 19 10 29 16 SSE 1016,9 60 0 0,0
05.08.2020 02:00:00 13,5 8,2 9,9 20,7 24,4 21,4 4 2 13 7 SSE 1017,0 60 0 0,0
05.08.2020 01:00:00 14,1 8,2 11,9 21,5 24,9 21,5 9 5 9 5 ESE 1017,1 10 0 0,0
05.08.2020 00:00:00 14,7 7,6 11,8 22,3 25,5 21,5 7 4 11 6 ESE 1017,2 60 0 0,0
04.08.2020 23:00:00 14,7 7,7 11,8 23,5 26,1 21,5 5 3 8 4 ESE 1017,3 60 0 0,0
04.08.2020 22:00:00 15,8 7,0 11,9 24,9 26,6 21,5 4 2 5 3 NE 1017,3 10 0 0,0
04.08.2020 21:00:00 20,2 6,2 15,7 27,1 27,0 21,5 4 2 13 7 - 1016,9 10 47 0,0
04.08.2020 20:00:00 22,3 5,2 23,8 29,5 27,1 21,5 10 6 18 10 NW 1016,8 65 60 0,0
04.08.2020 19:00:00 22,6 5,0 24,9 31,3 27,0 21,5 11 6 26 14 - 1016,5 10 60 0,0
04.08.2020 18:00:00 22,3 4,9 26,5 32,3 26,6 21,5 14 8 29 16 W 1016,7 65 60 0,0
04.08.2020 17:00:00 22,7 5,0 27,8 32,6 26,1 21,5 11 6 27 15 W 1016,7 10 60 0,0
04.08.2020 16:00:00 22,0 6,2 26,7 32,0 25,5 21,5 18 10 42 23 WSW 1017,1 10 43 0,0
04.08.2020 15:00:00 22,5 6,1 29,4 31,9 24,6 21,5 11 6 29 16 WSW 1017,0 60 56 0,0
04.08.2020 14:00:00 21,4 6,8 27,5 29,9 23,8 21,5 12 6 28 15 W 1017,2 65 54 0,0
04.08.2020 13:00:00 20,5 8,6 25,1 27,8 23,1 21,5 13 7 28 15 W 1017,2 65 48 0,0
04.08.2020 12:00:00 20,4 10,2 25,8 25,3 22,5 21,5 12 6 22 12 NW 1017,1 50 36 0,0
04.08.2020 11:00:00 18,5 10,1 21,1 23,5 22,0 21,5 9 5 23 12 WNW 1017,1 10 37 0,0
04.08.2020 10:00:00 18,1 11,6 21,4 21,5 21,7 21,5 12 6 18 10 WNW 1017,3 35 5 0,0
04.08.2020 09:00:00 16,8 12,4 18,6 20,0 21,7 21,5 10 6 16 9 NNW 1017,1 30 0 0,0
04.08.2020 08:00:00 15,0 12,2 15,2 18,8 21,9 21,5 8 4 11 6 NNW 1016,6 25 47 0,0
04.08.2020 07:00:00 12,3 11,2 10,6 18,3 22,3 21,5 0 0 5 3 N 1016,1 25 2 0,0
04.08.2020 06:00:00 12,9 12,0 10,1 18,8 22,6 21,5 5 3 10 6 WNW 1015,8 26 0 0,0
04.08.2020 05:00:00 13,4 12,1 11,8 19,4 23,0 21,5 9 5 10 6 NW 1015,4 40 0 0,0
04.08.2020 04:00:00 14,9 12,2 13,2 20,1 23,3 21,5 8 4 11 6 NNW 1015,1 10 0 0,0
04.08.2020 03:00:00 15,7 11,9 15,0 20,7 23,7 21,5 8 4 16 9 NNW 1014,9 55 0 0,0
04.08.2020 02:00:00 16,0 11,5 15,3 21,0 24,1 21,5 8 4 15 8 N 1015,1 10 0 0,0
04.08.2020 01:00:00 15,9 11,1 14,8 21,3 24,5 21,5 12 6 18 10 N 1014,8 55 0 0,0
04.08.2020 00:00:00 16,0 11,0 14,7 22,0 25,0 21,5 9 5 14 8 NNW 1014,3 60 0 0,0
03.08.2020 23:00:00 16,9 11,4 16,0 22,8 25,5 21,5 11 6 22 12 N 1013,6 60 0 0,0
03.08.2020 22:00:00 18,1 12,0 17,5 23,8 25,9 21,6 15 8 31 17 N 1013,2 55 0 0,0
03.08.2020 21:00:00 18,7 12,2 17,6 25,2 26,3 21,6 21 11 42 23 N 1012,7 10 20 0,1
03.08.2020 20:00:00 22,2 8,3 22,7 27,1 26,6 21,6 9 5 22 12 NNE 1011,7 10 5 0,0
03.08.2020 19:00:00 22,7 8,4 23,5 28,4 26,7 21,6 15 8 22 12 N 1011,4 10 5 0,0
03.08.2020 18:00:00 23,6 7,8 25,8 29,6 26,6 21,6 13 7 21 11 N 1011,5 10 13 0,0
03.08.2020 17:00:00 22,9 7,6 25,0 30,8 26,3 21,6 8 4 24 13 N 1011,6 10 21 0,0
03.08.2020 16:00:00 23,7 7,0 30,0 31,6 25,7 21,6 11 6 21 11 N 1012,0 55 41 0,0
03.08.2020 15:00:00 22,9 7,1 28,2 31,4 25,0 21,6 11 6 26 14 NNW 1012,5 10 48 0,0
03.08.2020 14:00:00 22,7 8,0 27,6 30,4 24,3 21,6 9 5 23 13 - 1012,9 10 58 0,0
03.08.2020 13:00:00 21,6 8,5 27,4 27,9 23,6 21,6 9 5 18 10 N 1013,3 10 35 0,0
03.08.2020 12:00:00 21,2 8,5 26,6 26,7 23,0 21,6 6 3 23 13 NE 1013,7 55 45 0,0
03.08.2020 11:00:00 20,6 9,1 25,7 24,5 22,4 21,5 5 3 16 9 - 1014,1 10 51 0,0
03.08.2020 10:00:00 19,2 10,2 22,2 22,0 22,1 21,5 4 2 9 5 - 1014,3 10 0 0,0
03.08.2020 09:00:00 16,5 10,5 18,4 20,2 22,1 21,5 3 2 9 5 NNE 1014,5 50 0 0,0
03.08.2020 08:00:00 14,1 10,7 14,7 19,0 22,2 21,5 4 2 5 3 NNE 1014,7 10 39 0,0
03.08.2020 07:00:00 11,7 10,1 10,8 18,3 22,6 21,5 3 2 5 3 N 1014,7 40 11 0,0
03.08.2020 06:00:00 10,8 9,8 9,3 18,5 23,1 21,5 4 2 5 3 NNE 1014,8 10 0 0,0
03.08.2020 05:00:00 10,7 9,7 7,3 19,1 23,5 21,5 2 1 8 4 E 1014,9 40 0 0,0
03.08.2020 04:00:00 11,6 10,1 8,1 19,7 24,0 21,5 2 1 5 3 NNE 1014,9 50 0 0,0
03.08.2020 03:00:00 12,1 9,9 9,9 20,5 24,5 21,5 4 2 5 3 ENE 1015,3 10 0 0,0
03.08.2020 02:00:00 13,8 10,3 11,8 21,4 24,9 21,4 6 3 9 5 N 1015,4 50 0 0,0
03.08.2020 01:00:00 15,4 10,3 11,5 22,2 25,4 21,4 9 5 15 8 N 1015,5 10 0 0,0
03.08.2020 00:00:00 17,3 10,0 15,2 23,2 25,8 21,4 11 6 18 10 N 1015,4 10 0 0,0
02.08.2020 23:00:00 19,2 10,1 18,1 24,1 26,2 21,4 11 6 26 14 NW 1015,4 10 0 0,0
02.08.2020 22:00:00 20,7 10,7 20,4 25,2 26,6 21,4 17 9 27 15 NW 1015,3 50 0 0,0
02.08.2020 21:00:00 21,3 11,2 21,3 26,1 26,9 21,4 17 9 24 13 NW 1014,9 50 0 0,0
02.08.2020 20:00:00 22,0 11,4 22,0 27,0 27,2 21,4 15 8 24 13 NW 1014,4 50 0 0,0
02.08.2020 19:00:00 22,4 11,7 22,9 28,2 27,3 21,4 11 6 22 12 NW 1014,2 55 0 0,0
02.08.2020 18:00:00 22,4 13,4 23,7 29,1 27,4 21,3 16 9 26 14 NNW 1014,4 50 7 0,0
02.08.2020 17:00:00 22,0 13,2 23,1 30,0 27,3 21,3 18 10 30 16 NW 1014,6 10 4 0,0
02.08.2020 16:00:00 22,9 14,1 25,4 32,0 26,9 21,3 21 11 29 16 W 1014,5 10 23 0,0
02.08.2020 15:00:00 22,8 14,5 26,9 31,4 26,3 21,3 14 8 31 17 W 1014,8 35 47 0,0
02.08.2020 14:00:00 22,3 15,0 25,7 30,2 25,9 21,3 21 11 34 18 W 1015,2 10 32 0,0
02.08.2020 13:00:00 22,0 14,4 25,9 28,7 25,4 21,3 18 10 30 16 W 1015,1 10 26 0,0
02.08.2020 12:00:00 21,1 13,8 24,7 27,3 25,1 21,2 21 11 31 17 W 1015,1 10 33 0,0
02.08.2020 11:00:00 19,8 13,1 22,4 25,6 24,9 21,2 15 8 25 14 WSW 1015,1 45 8 0,0
02.08.2020 10:00:00 20,0 13,2 22,3 24,3 24,9 21,2 15 8 22 12 W 1015,1 45 0 0,0
02.08.2020 09:00:00 19,0 13,4 20,4 23,8 25,1 21,2 13 7 22 12 W 1014,9 10 0 0,0
02.08.2020 08:00:00 19,4 14,0 19,7 23,6 25,3 21,1 5 3 11 6 W 1014,8 10 0 0,0
02.08.2020 07:00:00 19,4 13,9 19,5 23,7 25,5 21,1 4 2 11 6 WNW 1014,5 45 0 0,0
02.08.2020 06:00:00 19,6 14,2 19,5 24,0 25,8 21,1 6 3 13 7 NW 1014,7 40 0 0,0
02.08.2020 05:00:00 19,7 14,4 19,6 24,3 26,1 21,1 9 5 15 8 WNW 1014,6 40 0 0,0
02.08.2020 04:00:00 20,2 14,2 20,0 24,8 26,4 21,1 8 4 11 6 WNW 1014,8 10 0 0,0
02.08.2020 03:00:00 20,6 14,9 20,4 25,2 26,8 21,0 9 5 18 10 NW 1014,9 40 0 0,0
02.08.2020 02:00:00 21,4 14,4 21,4 25,6 27,1 21,0 12 6 16 9 WNW 1015,0 40 0 0,0
02.08.2020 01:00:00 22,0 14,2 21,7 26,1 27,5 21,0 7 4 13 7 NW 1015,0 40 0 0,0
02.08.2020 00:00:00 22,3 15,1 21,7 26,7 28,0 21,0 10 5 21 11 NW 1014,8 30 0 0,0
01.08.2020 23:00:00 22,6 16,8 22,3 27,3 28,4 21,0 14 8 22 12 NNW 1014,9 30 0 0,0
01.08.2020 22:00:00 23,3 17,1 22,9 28,5 28,9 20,9 11 6 33 18 NNW 1014,8 10 0 0,0
01.08.2020 21:00:00 24,3 18,3 24,0 30,3 29,2 20,9 18 10 37 20 NNW 1014,3 30 35 0,0
01.08.2020 20:00:00 26,6 18,3 27,9 32,0 29,4 20,9 18 10 28 15 NW 1013,7 10 34 0,0
01.08.2020 19:00:00 28,6 16,7 30,4 34,4 29,2 20,9 18 10 34 18 WNW 1013,4 10 60 0,0
01.08.2020 18:00:00 29,4 17,0 32,8 35,2 28,8 20,9 17 9 29 16 NW 1013,6 35 60 0,0
01.08.2020 17:00:00 30,6 16,9 35,2 35,9 28,2 20,8 18 10 30 16 WNW 1013,5 40 52 0,0
01.08.2020 16:00:00 31,0 16,2 35,9 35,6 27,4 20,8 11 6 40 22 W 1013,7 10 60 0,0
01.08.2020 15:00:00 30,0 14,6 35,4 34,0 26,5 20,8 12 6 26 14 W 1013,8 45 60 0,0
01.08.2020 14:00:00 29,1 16,5 34,4 30,5 26,0 20,8 8 4 21 11 - 1014,2 10 27 0,0
01.08.2020 13:00:00 27,5 16,2 29,7 28,8 25,7 20,7 16 9 24 13 S 1014,5 10 0 0,0
01.08.2020 12:00:00 26,4 16,5 27,9 27,8 25,4 20,7 18 10 26 14 SW 1014,7 10 0 0,0
01.08.2020 11:00:00 26,7 17,2 28,6 26,7 25,2 20,7 13 7 38 20 SSW 1014,3 10 7 0,0
01.08.2020 10:00:00 25,2 17,9 25,4 25,4 25,2 20,6 22 12 29 16 SSW 1014,9 10 0 0,0
01.08.2020 09:00:00 24,6 16,8 25,3 24,6 25,3 20,6 11 6 18 10 SW 1013,5 10 20 0,0
01.08.2020 08:00:00 23,0 15,9 21,9 24,0 25,5 20,6 8 4 15 8 SW 1013,3 10 7 0,0
01.08.2020 07:00:00 21,2 17,4 20,0 24,2 25,8 20,6 7 4 27 14 NE 1012,8 50 0 0,2
01.08.2020 06:00:00 24,9 13,3 23,7 25,0 26,1 20,5 15 8 31 17 SSW 1013,0 60 0 0,0
01.08.2020 05:00:00 25,3 12,6 24,3 25,2 26,3 20,5 18 10 29 16 SSE 1012,1 10 0 0,0
01.08.2020 04:00:00 25,8 12,5 24,3 25,4 26,7 20,5 21 11 31 17 SSE 1012,0 10 0 0,0
01.08.2020 03:00:00 26,5 12,4 25,1 25,6 27,0 20,5 20 11 31 17 SSE 1012,1 65 0 0,0
01.08.2020 02:00:00 26,7 12,2 24,8 25,8 27,5 20,5 20 11 28 15 SE 1012,4 65 0 0,0

tt = temperature
td = dewpoint
tt 5cm = temperature 5cm
tt -5cm = temperature -5cm
tt -20cm = temperature -20cm
tt -100cm = temperature -100cm
ff = wind speed
fx = gusts
dd = wind direction
ppp = reduced air pressure
vv = visibility
sd = sunshine duration
rr = precipitation

Next stations